Погода в Бафре

Турция     41°33′26″N   35°54′20″E
темп.,
°C
ветер,
м/с
пор.,
м/с
влажн.,
%
обл.,
%
осадки,
мм/ч
давл.,
гПа
погр.,
м
12 мая, ср
ср1200:00+8ю22605 0.0 101621
03:00+8ююз22547 0.0 101419
06:00+8ююз22584 0.0 101419
09:00+15в22493 0.0 1013406
12:00+16в445783 0.0 1012425
15:00+16в45630 0.0 1011408
18:00+15вюв46720 0.0 1011278
21:00+11вюв34820 0.0 101165
13 мая, чт
чт1300:00+10юв22799 0.0 101030
03:00+10вюв23780 0.0 100943
06:00+11юв2277100 0.0 100929
09:00+17всв22655 0.0 1009246
12:00+20всв316694 0.0 1010331
15:00+20всв32688 0.0 1009273
18:00+17в22750 0.0 1009168
21:00+14юв01850 0.0 101011
14 мая, пт
пт1400:00+13юв11830 0.0 100912
03:00+14юв23710 0.0 100835
06:00+14з22750 0.0 100918
09:00+20сз34674 0.0 1010277
12:00+23сз45580 0.0 1011405
15:00+21сз57570 0.0 1012466
18:00+18сз35660 0.0 1013312
21:00+14юз22621 0.0 101311
15 мая, сб
сб1500:00+14юз22500 0.0 101313
03:00+14юз22440 0.0 101312
06:00+14юз21535 0.0 101411
09:00+20ссз114720 0.0 1014309
12:00+22всв32485 0.0 1014643
15:00+22всв335017 0.0 1013586
18:00+19в22605 0.0 1012184
21:00+14ю226610 0.0 101111
16 мая, вс
вс1600:00+14ю225911 0.0 100914
03:00+14ю2251100 0.0 100616
06:00+16ююв335799 0.0 100437
09:00+20вюв3457100 0.1 1002237
12:00+21всв44625 0.3 1001306
15:00+21сз666071 0.3 1002621
18:00+15зсз1494100 5.6 1003303
21:00+15зюз229197 7.9 100228